CW0621 Weather Reports


time (UTC)temp
C
wind
direction
speed
KPH
gust
KPH
rain 1hr
cm
rain 24hr
cm
rain mn
cm
humidity
%
barometer
mb
20260507093025 3 281 0.0 0.0 0.00 0.00 0.00 78 1013.9
20260507091600 3 153 0.0 0.0 0.00 0.00 0.00 78 1013.9
20260507090018 3 124 0.0 0.0 0.00 0.00 0.00 77 1013.8
20260507084547 3 223 0.0 0.0 0.00 0.00 0.00 76 1013.8
20260507083016 3 202 0.0 0.0 0.00 0.00 0.00 76 1013.8
20260507081552 3 259 0.0 0.0 0.00 0.00 0.00 76 1014.0
20260507080009 3 135 0.0 0.0 0.00 0.00 0.00 74 1013.9
20260507074540 4 135 0.0 0.0 0.00 0.00 0.00 73 1013.8
20260507073113 5 212 0.0 0.0 0.00 0.00 0.00 71 1013.9
20260507071527 5 172 0.0 0.0 0.00 0.00 0.00 70 1013.9
20260507070135 5 225 0.0 0.0 0.00 0.00 0.00 69 1013.9
20260507064520 5 9 0.0 0.0 0.00 0.00 0.00 68 1013.9
20260507063044 6 200 0.0 0.0 0.00 0.00 0.00 67 1014.1
20260507061525 6 184 0.0 0.0 0.00 0.00 0.00 66 1014.2
20260507060037 6 201 0.0 0.0 0.00 0.00 0.00 66 1014.1
20260507054502 6 150 0.0 0.0 0.00 0.00 0.00 65 1014.1
20260507053034 6 219 0.0 0.0 0.00 0.00 0.00 65 1014.1
20260507051602 7 154 0.0 0.0 0.00 0.00 0.00 65 1014.1
20260507050032 7 166 0.0 0.0 0.00 0.00 0.00 63 1014.1
20260507044602 7 239 0.0 0.0 0.00 0.00 0.00 61 1014.0
20260507043022 8 160 0.0 0.0 0.00 0.00 0.00 61 1014.0
20260507041550 7 131 0.0 0.0 0.00 0.00 0.00 65 1013.9
20260507040013 7 157 0.0 0.0 0.00 0.00 0.00 66 1014.0
20260507034547 7 114 0.0 0.0 0.00 0.00 0.00 67 1014.0
20260507033012 7 114 0.0 0.0 0.00 0.00 0.00 68 1014.0
20260507031542 7 114 0.0 0.0 0.00 0.00 0.00 66 1014.1
20260507030008 7 114 0.0 0.0 0.00 0.00 0.00 65 1014.0
20260507024536 7 114 0.0 0.0 0.00 0.00 0.00 62 1014.0
20260507023002 8 114 0.0 0.0 0.00 0.00 0.00 61 1014.1
20260507021533 8 114 0.0 0.0 0.00 0.00 0.00 57 1014.1
20260507020107 8 114 0.0 0.0 0.00 0.00 0.00 57 1014.0
20260507014528 8 226 0.0 0.0 0.00 0.00 0.00 58 1013.9
20260507013055 8 145 0.0 0.0 0.00 0.00 0.00 57 1013.8
20260507011528 9 145 0.0 0.0 0.00 0.00 0.00 55 1013.6
20260507004517 10 212 0.0 0.0 0.00 0.03 0.00 50 1013.5
20260507003050 10 212 0.0 0.0 0.00 0.03 0.00 48 1013.4
20260507001513 10 110 0.0 0.0 0.00 0.03 0.00 47 1013.4
20260507000043 10 123 0.0 0.0 0.00 0.10 0.00 43 1013.3
20260506234507 10 55 0.0 0.0 0.00 0.10 0.00 46 1013.3
20260506233039 10 39 0.0 0.0 0.00 0.10 0.00 48 1013.5
20260506231512 10 96 0.0 0.0 0.00 0.10 0.00 48 1013.4
20260506230042 11 77 0.0 0.0 0.00 0.10 0.00 44 1013.4
20260506224507 11 49 0.0 9.7 0.00 0.10 0.00 44 1013.4
20260506223037 11 104 0.0 1.6 0.00 0.10 0.00 45 1013.3
20260506221600 11 205 0.0 3.2 0.00 0.10 0.00 43 1013.3
20260506220033 11 178 0.0 4.8 0.00 0.10 0.00 43 1013.3
20260506214554 11 60 0.0 4.8 0.00 0.10 0.00 43 1013.2
20260506213020 12 11 0.0 6.4 0.00 0.10 0.00 44 1013.2
20260506211549 12 229 0.0 1.6 0.00 0.10 0.00 40 1013.3
20260506210018 12 164 0.0 4.8 0.00 0.10 0.00 43 1013.2
20260506204545 12 57 0.0 4.8 0.00 0.10 0.00 42 1013.0
20260506203010 12 58 0.0 3.2 0.00 0.10 0.00 47 1013.1
20260506201544 12 125 0.0 9.7 0.00 0.10 0.00 44 1013.3
20260506200101 13 154 0.0 11.3 0.00 0.10 0.00 42 1013.2
20260506194527 13 201 0.0 9.7 0.00 0.10 0.00 39 1013.3
20260506193055 13 304 0.0 3.2 0.00 0.10 0.00 43 1013.4
20260506191519 12 321 0.0 8.0 0.00 0.10 0.00 45 1013.5
20260506190046 12 49 0.0 4.8 0.00 0.10 0.00 43 1013.5
20260506184513 12 188 0.0 3.2 0.00 0.10 0.00 43 1013.8
20260506183041 12 56 0.0 3.2 0.00 0.10 0.00 45 1013.7
20260506181506 12 18 0.0 0.0 0.00 0.10 0.00 50 1013.7
20260506180031 11 198 0.0 4.8 0.00 0.10 0.00 42 1013.6
20260506174600 11 52 0.0 0.0 0.00 0.10 0.00 45 1013.5
20260506173025 11 325 0.0 8.0 0.00 0.10 0.00 43 1013.5
20260506171556 11 354 0.0 6.4 0.00 0.10 0.00 45 1013.8
20260506170015 11 84 0.0 0.0 0.00 0.10 0.00 45 1013.7
20260506164539 11 27 0.0 3.2 0.00 0.10 0.00 44 1014.0
20260506163006 10 345 0.0 0.0 0.00 0.10 0.00 46 1014.0
20260506161540 10 63 0.0 1.6 0.00 0.10 0.00 48 1014.2
20260506154530 10 24 0.0 6.4 0.00 0.10 0.00 52 1014.0
20260506153049 10 37 0.0 9.7 0.00 0.10 0.00 49 1013.7
20260506151512 9 39 0.0 11.3 0.00 0.10 0.00 48 1013.9
20260506150040 9 28 0.0 11.3 0.00 0.10 0.00 50 1013.6
20260506144502 10 30 0.0 6.4 0.00 0.10 0.00 48 1013.5
20260506143026 9 15 0.0 0.0 0.00 0.10 0.00 52 1013.3
20260506141556 8 23 0.0 6.4 0.00 0.10 0.00 55 1013.3
20260506140015 8 62 0.0 1.6 0.00 0.10 0.00 54 1013.0
20260506134543 8 334 0.0 0.0 0.00 0.10 0.00 54 1013.0
20260506133006 7 7 0.0 1.6 0.00 0.10 0.00 60 1012.9
20260506131534 7 338 0.0 0.0 0.00 0.10 0.00 61 1012.6
20260506130057 6 48 0.0 0.0 0.00 0.10 0.00 64 1012.6
20260506124522 6 19 0.0 0.0 0.00 0.10 0.00 65 1012.6
20260506123049 6 38 0.0 0.0 0.00 0.10 0.00 66 1012.6
20260506121514 6 32 0.0 0.0 0.00 0.10 0.00 69 1012.3
20260506120047 6 56 0.0 0.0 0.00 0.10 0.00 71 1012.1
20260506114507 5 54 0.0 0.0 0.00 0.10 0.00 74 1011.7
20260506113034 5 44 0.0 0.0 0.00 0.10 0.00 76 1011.3
20260506111600 4 29 0.0 0.0 0.00 0.10 0.00 79 1011.2
20260506110027 4 29 0.0 0.0 0.00 0.10 0.00 78 1011.1
20260506104551 5 29 0.0 0.0 0.00 0.10 0.00 77 1010.9
20260506103020 5 28 0.0 0.0 0.00 0.10 0.00 75 1010.8
20260506101540 5 1 0.0 0.0 0.00 0.10 0.00 74 1010.6
20260506100005 6 64 0.0 0.0 0.00 0.10 0.00 71 1010.5
20260506094531 6 60 0.0 0.0 0.00 0.10 0.00 72 1010.3